AP586 Weather Reports


time (UTC)temp
F
wind
direction
speed
knots
gust
knots
rain 1hr
in
rain 24hr
in
rain mn
in
humidity
%
barometer
mb
20260507180047 68 315 5.2 12.2 0.00 0.21 0.13 31 1003.3
20260507174535 68 242 3.5 13.0 0.00 0.21 0.13 31 1003.3
20260507173039 67 270 4.3 13.0 0.00 0.21 0.13 33 1003.3
20260507171528 67 128 4.3 13.0 0.00 0.21 0.13 37 1003.4
20260507170042 66 260 0.9 11.3 0.00 0.21 0.13 40 1003.6
20260507164523 65 308 3.5 11.3 0.00 0.21 0.13 42 1003.7
20260507163023 65 300 2.6 7.8 0.00 0.21 0.13 44 1003.9
20260507161521 65 299 3.5 8.7 0.00 0.21 0.13 44 1004.0
20260507160024 65 268 3.5 8.7 0.00 0.21 0.13 49 1004.2
20260507154516 64 323 1.7 9.6 0.00 0.21 0.13 51 1004.4
20260507153015 63 306 0.9 7.8 0.00 0.21 0.13 51 1004.5
20260507151518 64 260 1.7 6.1 0.00 0.21 0.13 50 1004.6
20260507150012 63 252 1.7 13.0 0.00 0.21 0.13 51 1004.7
20260507144511 62 262 3.5 9.6 0.00 0.21 0.13 54 1004.8
20260507143009 62 336 0.9 5.2 0.00 0.21 0.13 53 1005.1
20260507141508 62 294 1.7 7.8 0.00 0.21 0.13 54 1005.0
20260507140007 60 296 0.9 7.0 0.00 0.21 0.13 56 1005.1
20260507134601 59 278 2.6 8.7 0.00 0.21 0.13 61 1005.2
20260507133059 58 280 2.6 9.6 0.00 0.21 0.13 68 1005.2
20260507131556 56 273 2.6 8.7 0.00 0.21 0.13 77 1005.3
20260507124557 52 304 0.0 7.8 0.00 0.21 0.13 92 1005.3
20260507123051 50 295 1.7 6.1 0.00 0.21 0.13 92 1005.5
20260507121554 50 279 0.0 6.1 0.00 0.21 0.13 92 1005.4
20260507120049 49 290 0.0 2.6 0.00 0.21 0.13 92 1005.1
20260507114547 49 266 0.0 3.5 0.01 0.21 0.13 92 1005.4
20260507113049 49 265 0.0 2.6 0.01 0.21 0.13 92 1005.3
20260507111546 48 264 0.0 2.6 0.01 0.21 0.13 91 1005.0
20260507110056 49 261 0.0 1.7 0.00 0.20 0.12 91 1004.9
20260507104550 48 261 0.0 1.7 0.01 0.20 0.12 91 1004.9
20260507103109 48 261 0.0 2.6 0.01 0.20 0.12 91 1005.3
20260507101541 48 265 0.0 1.7 0.02 0.20 0.12 91 1004.7
20260507100049 48 265 0.0 3.5 0.04 0.20 0.12 90 1004.9
20260507094537 49 294 0.0 4.3 0.06 0.19 0.11 90 1004.6
20260507093032 49 288 0.9 7.8 0.08 0.19 0.11 90 1004.8
20260507091538 49 290 1.7 7.8 0.08 0.18 0.10 89 1004.1
20260507090033 50 275 3.5 7.8 0.07 0.16 0.08 89 1004.6
20260507084538 51 291 0.9 6.1 0.04 0.13 0.05 88 1004.6
20260507083021 51 286 0.9 4.3 0.03 0.11 0.03 88 1004.3
20260507081518 52 290 2.6 7.0 0.02 0.10 0.02 87 1004.2
20260507080015 53 304 3.5 9.6 0.01 0.09 0.01 86 1004.3
20260507074512 54 290 2.6 8.7 0.01 0.09 0.01 86 1004.1
20260507073008 54 259 0.9 7.0 0.00 0.08 0.00 86 1003.8
20260507071506 54 285 1.7 7.0 0.00 0.08 0.00 86 1003.2
20260507070009 55 294 1.7 10.4 0.00 0.08 0.00 87 1003.3
20260507064504 55 271 0.9 5.2 0.00 0.08 0.00 88 1003.4
20260507063001 56 258 2.6 5.2 0.00 0.08 0.00 89 1003.4
20260507061602 56 288 1.7 4.3 0.00 0.08 0.00 89 1003.2
20260507060103 56 255 0.0 7.0 0.00 0.08 0.00 90 1003.4
20260507054613 57 261 1.7 5.2 0.00 0.08 0.00 91 1003.6
20260507053105 57 283 0.9 7.0 0.00 0.08 0.00 91 1003.7
20260507051557 58 300 0.0 2.6 0.00 0.08 0.00 91 1003.5
20260507050054 59 285 1.7 3.5 0.00 0.08 0.00 92 1003.4
20260507044554 59 245 0.9 3.5 0.00 0.08 0.00 92 1003.6
20260507043044 59 241 0.0 5.2 0.00 0.08 0.00 92 1003.3
20260507041547 59 284 2.6 8.7 0.00 0.08 0.00 92 1003.4
20260507040041 59 263 0.9 7.0 0.00 0.08 0.08 92 1003.6
20260507034538 58 189 3.5 6.1 0.00 0.08 0.08 92 1003.7
20260507033037 58 217 2.6 7.0 0.00 0.08 0.08 92 1003.5
20260507031539 58 234 3.5 8.7 0.00 0.08 0.08 92 1003.2
20260507030033 58 194 3.5 12.2 0.00 0.08 0.08 92 1003.2
20260507024537 58 187 5.2 7.8 0.00 0.08 0.08 92 1003.1
20260507023033 58 247 4.3 9.6 0.00 0.08 0.08 92 1003.0
20260507021536 58 169 4.3 13.0 0.00 0.08 0.08 92 1003.0
20260507020031 57 215 3.5 10.4 0.00 0.08 0.08 92 1003.1
20260507014532 57 240 2.6 9.6 0.00 0.08 0.08 92 1003.2
20260507013031 57 194 3.5 8.7 0.00 0.08 0.08 92 1003.5
20260507011531 57 203 5.2 11.3 0.00 0.08 0.08 92 1003.6
20260507010037 57 175 3.5 10.4 0.00 0.08 0.08 92 1003.7
20260507004528 57 190 4.3 9.6 0.00 0.08 0.08 92 1003.6
20260507003026 57 190 2.6 11.3 0.01 0.08 0.08 92 1003.6
20260507001528 57 215 6.1 16.5 0.01 0.08 0.08 92 1003.5
20260507000026 57 205 3.5 14.8 0.01 0.08 0.08 91 1003.4
20260506234521 57 196 4.3 15.6 0.01 0.08 0.08 91 1003.3
20260506233019 57 144 5.2 12.2 0.00 0.07 0.07 91 1003.2
20260506231519 58 193 6.1 13.0 0.00 0.07 0.07 91 1003.3
20260506230013 58 200 3.5 11.3 0.01 0.07 0.07 91 1003.4
20260506224514 58 192 4.3 10.4 0.01 0.07 0.07 91 1003.4
20260506223008 59 189 5.2 11.3 0.02 0.07 0.07 91 1003.6
20260506221506 59 157 6.1 13.0 0.04 0.07 0.07 90 1003.7
20260506220004 59 160 3.5 12.2 0.04 0.06 0.06 90 1003.8
20260506214603 60 155 4.3 13.0 0.04 0.06 0.06 90 1004.0
20260506213102 60 158 4.3 18.2 0.04 0.05 0.05 89 1004.1
20260506211558 60 168 9.6 21.7 0.02 0.03 0.03 88 1004.0
20260506210057 61 159 3.5 10.4 0.02 0.02 0.02 87 1004.1
20260506204556 61 198 6.1 13.0 0.02 0.02 0.02 85 1004.2
20260506203054 62 121 4.3 17.4 0.01 0.01 0.01 83 1004.2
20260506201553 62 325 5.2 20.0 0.01 0.01 0.01 82 1004.0
20260506200052 64 163 6.1 13.9 0.00 0.00 0.00 78 1004.1
20260506194551 64 215 4.3 12.2 0.00 0.00 0.00 76 1004.3
20260506193054 65 212 7.0 19.1 0.00 0.00 0.00 74 1004.6
20260506191649 66 217 7.8 18.2 0.00 0.00 0.00 70 1004.5
20260506190051 67 217 5.2 15.6 0.00 0.00 0.00 66 1004.3
20260506184548 68 242 8.7 18.2 0.00 0.00 0.00 64 1004.4
20260506183046 68 165 3.5 15.6 0.00 0.00 0.00 64 1004.5
20260506181600 69 174 7.0 20.9 0.00 0.00 0.00 62 1004.7